| time (UTC) | temp F | wind direction | speed knots | gust knots | rain 1hr in | rain 24hr in | rain mn in | humidity % | barometer mb |
| 20260503193020 | 59 | 180 | 3.5 | 6.1 | 0.00 | 0.01 | 0.01 | 80 | 1011.6 |
| 20260503190021 | 60 | 247 | 1.7 | 7.0 | 0.00 | 0.01 | 0.01 | 74 | 1011.5 |
| 20260503183021 | 59 | 180 | 1.7 | 4.3 | 0.00 | 0.01 | 0.01 | 71 | 1011.6 |
| 20260503180042 | 58 | 180 | 0.9 | 6.1 | 0.00 | 0.01 | 0.01 | 76 | 1011.5 |
| 20260503173042 | 57 | 315 | 2.6 | 8.7 | 0.00 | 0.01 | 0.01 | 75 | 1011.5 |
| 20260503053021 | 55 | 0.0 | 4.3 | 0.00 | 0.00 | 0.00 | 84 | 1010.3 | |
| 20260503050121 | 55 | 315 | 0.9 | 3.5 | 0.00 | 0.00 | 0.00 | 83 | 1010.3 |
| 20260503043021 | 56 | 315 | 1.7 | 7.0 | 0.00 | 0.00 | 0.00 | 83 | 1010.1 |
| 20260503040016 | 56 | 315 | 1.7 | 5.2 | 0.00 | 0.00 | 0.00 | 82 | 1009.5 |
| 20260503033021 | 57 | 0.0 | 0.9 | 0.00 | 0.00 | 0.00 | 82 | 1009.2 | |
| 20260503030021 | 58 | 0.0 | 0.9 | 0.00 | 0.00 | 0.00 | 80 | 1009.0 | |
| 20260503023016 | 60 | 0.0 | 1.7 | 0.00 | 0.00 | 0.00 | 77 | 1008.9 | |
| 20260503020021 | 61 | 0.0 | 3.5 | 0.00 | 0.00 | 0.00 | 76 | 1008.8 | |
| 20260503013020 | 62 | 202 | 0.9 | 3.5 | 0.00 | 0.00 | 0.00 | 74 | 1008.8 |
| 20260503010020 | 64 | 180 | 0.9 | 3.5 | 0.00 | 0.00 | 0.00 | 71 | 1008.8 |
| 20260503003037 | 66 | 180 | 0.9 | 4.3 | 0.00 | 0.00 | 0.00 | 69 | 1008.8 |
| 20260503000020 | 69 | 180 | 0.9 | 3.5 | 0.00 | 0.00 | 0.00 | 65 | 1008.9 |
| 20260502233021 | 67 | 202 | 0.9 | 4.3 | 0.00 | 0.00 | 0.00 | 67 | 1009.2 |
| 20260502230020 | 67 | 225 | 0.9 | 4.3 | 0.00 | 0.00 | 0.00 | 68 | 1009.7 |
| 20260502223020 | 66 | 202 | 1.7 | 4.3 | 0.00 | 0.00 | 0.00 | 71 | 1010.3 |
| 20260502220020 | 64 | 180 | 1.7 | 4.3 | 0.00 | 0.00 | 0.00 | 75 | 1011.0 |
| 20260502213020 | 62 | 202 | 0.9 | 4.3 | 0.00 | 0.00 | 0.00 | 78 | 1011.3 |
| 20260502210016 | 61 | 0.0 | 1.7 | 0.00 | 0.00 | 0.00 | 80 | 1011.5 | |
| 20260502203020 | 60 | 202 | 0.9 | 2.6 | 0.00 | 0.00 | 0.00 | 82 | 1011.9 |
| 20260502200041 | 60 | 180 | 0.9 | 2.6 | 0.00 | 0.00 | 0.00 | 82 | 1012.3 |